User: anonymous   Login
Location: Caltech
(34.1382°N, 118.1253°W)
Time: 00:49:42
(UTC-07:00)
Language:

KITSAT 1 - Orbit

View from above orbital plane
View from above orbital plane
View from above satellite
View from above satellite

Ground track
Ground track

The orbit data is extracted from the following two-line orbital elements,

1 22077U 92052B   16150.97418425 -.00000065 +00000-0 -13785-4 0  9990
2 22077 066.0864 049.2547 0012533 232.8982 209.6369 12.86513120117721
Epoch (UTC): 29 May 2016 23:22:49
Eccentricity: 0.0012533
inclination: 66.0864°
perigee height: 1306 km
apogee height: 1325 km
right ascension of ascending node: 49.2547°
argument of perigee: 232.8982°
revolutions per day: 12.86513120
mean anomaly at epoch: 209.6369°
orbit number at epoch: 11772

The dashed part of the orbit path shows where the satellite is in the earth's shadow,  

DLR